{"data":{"norad_id":60561,"intl_designator":"2024-149CX","name":"FLOCK 4BE-3","alt_names":[],"object_type":"PAYLOAD","status":"ACTIVE","operator":null,"country":"US","launch_date":"2024-08-16","launch_site_code":"AFWTR","launch_vehicle":null,"mission":null,"orbit_class":"UNKNOWN","rcs_meters":null,"size_class":null,"mass_kg":null,"dimensions":null,"purposes":["earth_obs"],"wikipedia_slug":null,"has_3d_model":false,"image_url":null,"decayed_at":null,"tle_current":{"epoch":"2026-09-18T11:12:41.696064Z","epoch_age_seconds":190104,"freshness":"STALE","line1":"1 60561U 24149CX  26261.46714926  .00029492  00000+0  62928-3 0  9999","line2":"2 60561  97.3637 346.4369 0002572 313.9777  46.1259 15.44839701116729","mean_motion":15.44839701,"eccentricity":0.0002572,"inclination_deg":97.3637,"raan_deg":346.4369,"arg_perigee_deg":313.9777,"mean_anomaly_deg":46.1259,"bstar":0.00062928,"rev_number":11672,"period_min":93.213554718193,"perigee_km":430.09759132545,"apogee_km":433.60064818545,"semimajor_km":6809.9861197554,"source":"CELESTRAK","updated_at":"2026-09-20T09:00:34.716674Z"}}}